Regional Weather Roundup
Issued by NWS Wilmington, NC

Home | Current Version | Previous Version | Text Only | Print | Product List | Glossary On
Versions: 1 2 3 4 5 6 7 8 9 10 11 12 13 14 15 16 17 18 19 20 21 22 23 24 25 26 27 28 29 30 31 32 33 34 35 36 37 38 39 40 41 42 43 44 45 46 47 48 49 50
000
ASUS42 KILM 032113
RWRILM
RWRILM
REGIONAL HOURLY WEATHER ROUNDUP
NATIONAL WEATHER SERVICE WILMINGTON NC
500 PM EDT FRI JUL 03 2015

NOTE: "FAIR" INDICATES FEW OR NO CLOUDS BELOW 12,000 FEET WITH NO
SIGNIFICANT WEATHER AND/OR OBSTRUCTIONS TO VISIBILITY.

...............WFO WILMINGTON COUNTY WARNING AREA...............

......COASTAL NC AND SC COUNTIES......

CITY           SKY/WX    TMP DP  RH WIND       PRES   REMARKS
WILMINGTON     PTSUNNY   80  74  81 S8        29.93S
N MYRTLE BEACH TSTM      77  72  84 SW20G29   29.96R
MYRTLE BEACH   TSTM      79  70  73 S13G24    29.96R

......INLAND NC AND SC COUNTIES.......

CITY           SKY/WX    TMP DP  RH WIND       PRES   REMARKS
LUMBERTON      MOSUNNY   86  71  60 SW13G22   29.89F HX  91
ELIZABETHTOWN  MOSUNNY   85  73  68 S8        29.91F HX  91
WHITEVILLE     MOSUNNY   83  76  80 W3        29.92R HX  91
FLORENCE       PTSUNNY   86  70  58 SW16      29.91F HX  90
DARLINGTON     PTSUNNY   81  70  69 SW12      29.92F

....................REST OF NORTH CAROLINA......................

.........EASTERN NC.........

CITY           SKY/WX    TMP DP  RH WIND       PRES   REMARKS
CAPE HATTERAS  CLOUDY    82  72  71 S6        29.95F
JACKSONVILLE   PTSUNNY   82  70  65 SW10      29.92S
MOREHEAD CITY  MOSUNNY   82  74  76 SW21G26   29.93S
KENANSVILLE    PTSUNNY   82  71  69 S5        29.92S
NEW BERN       MOSUNNY   84  75  74 SW6       29.91F HX  92
ELIZABETH CITY MOSUNNY   80  70  71 E10       29.92F

.........CENTRAL NC.........

CITY           SKY/WX    TMP DP  RH WIND       PRES   REMARKS
RALEIGH DURHAM PTSUNNY   78  74  87 SW9       29.90F
ROCKY MOUNT    CLOUDY    82  71  69 S9        29.90F
ROANOKE RAPIDS NOT AVBL
FAYETTEVILLE   LGT RAIN  78  75  90 W5        29.90S FOG
HOFFMAN        CLOUDY    78  73  84 S5        29.93F

.........WESTERN NC.........

CITY           SKY/WX    TMP DP  RH WIND       PRES   REMARKS
CHARLOTTE      PTSUNNY   83  65  54 SW16G22   29.90S
GREENSBORO     PTSUNNY   76  71  85 CALM      29.90F
HICKORY        NOT AVBL
BOONE          NOT AVBL
ASHEVILLE      NOT AVBL

.....................REST OF SOUTH CAROLINA.....................

.........EASTERN SC.........

CITY           SKY/WX    TMP DP  RH WIND       PRES   REMARKS
CHARLESTON     CLOUDY    74  70  87 S7        30.00S
BEAUFORT MCAS  MOSUNNY   83  70  64 W8        29.99F
HILTON HEAD    MOSUNNY   90  72  55 W9        30.02R HX  96

.........CENTRAL SC.........

CITY           SKY/WX    TMP DP  RH WIND       PRES   REMARKS
COLUMBIA       CLOUDY    83  69  62 SW13G21   29.93F
ORANGEBURG     CLOUDY    76  70  82 SW8       29.97S
SUMTER SHAW    CLOUDY    83  69  62 SW12      29.92S

.........WESTERN SC.........

CITY           SKY/WX    TMP DP  RH WIND       PRES   REMARKS
GREENVILLE     NOT AVBL
ROCK HILL      CLOUDY    81  69  67 W9        29.91F
ANDERSON       PTSUNNY   81  66  60 W17G25    29.94F
CLEMSON        NOT AVBL
GREENWOOD      PTSUNNY   79  71  76 SW13      29.96F


...................COASTAL AND OFFSHORE REPORTS..................

................LOCAL PIERS AND NC RESERVE................


STATION/POSITION TIME  SKY/WX   TEMP    WIND        PRES    VSBY
                                AIR SEA DIR/SP/G
                 (UTC)          (F)     (DEG/KT/KT) (MB)    (MI)
JOHNY MRCER PIER 2000            80 81  170/ 16/ 19 1013.1F
NC RESRV MASNBRO NOT AVBL
OCEAN CREST PIER NOT AVBL
SPRINGMAID  PIER 2000            80 83  170/ 23/ 26 1013.8F


................COASTAL AND OFFSHORE BUOYS................


STATION/POSITION TIME  SKY/WX   TEMP    WIND        PRES    VSBY
                                AIR SEA DIR/SP/G
                 (UTC)          (F)     (DEG/KT/KT) (MB)    (MI)
DIMNDSHOAL 41025 2050            80 80  210/ 14/ 17 1014.0F
WVE H/P(F/S)=  5/ 6 WND WVE H/P(F/S)=  3/ 6 SWL H/P/D(F/S/D)=  3/170/ 8

CAPE LOOKOUT     2100            81     210/ 12/ 17 1013.3F
ONSLOW BAY 41036 NOT AVBL
5 WRITEBCH 41038 2008            79 80  210/ 16/ 21 1013.6F
MASONBORO  41110 2019               80                N/A
WVE H/P(F/S)=  4/ 7 WND WVE H/P(F/S)=  3/ 7

WILM HARBR 41108 2011               82                N/A
WVE H/P(F/S)=  5/ 6 WND WVE H/P(F/S)=  5/ 6

27WRITEBCH 41037 2000               80  230/ 16/ 19   N/A
FRYING PAN 41013 2050            81 80  210/ 19/ 23 1014.4F
WVE H/P(F/S)=  5/ 6 WND WVE H/P(F/S)=  5/ 6

SUNST NRSH 41024 2008            80     210/ 17/ 23 1013.4F
CAPRS NRSH 41029 2008            74     240/ 17/ 25 1016.8R
EDISTO     41004 2050            76 82  260/ 21/ 27 1016.7R
WVE H/P(F/S)=  5/ 5 WND WVE H/P(F/S)=  5/ 5 SWL H/P/D(F/S/D)=  2/ 9



..........OFFSHORE BUOYS BEYOND 100 NM OFFSHORE...........
.....IN A TRIANGLE---HAT TO BERMUDA TO BAHAMAS TO HAT.....


STATION/POSITION TIME  SKY/WX   TEMP    WIND        PRES    VSBY
                                AIR SEA DIR/SP/G
                 (UTC)          (F)     (DEG/KT/KT) (MB)    (MI)
150E HAT   41001 NOT AVBL
W BERMUDA  41048 2050            81 81  230/ 12/ 14 1020.6F
WVE H/P(F/S)=  5/ 8 WND WVE H/P(F/S)=  3/ 5 SWL H/P/D(F/S/D)=  3/240/ 8

ATLANTIC S 41049 2050            83 85  130/  4/  6 1023.2F
WVE H/P(F/S)=  4/ 8 WND WVE H/P(F/S)=  2/ 4 SWL H/P/D(F/S/D)=  3/130/ 8

E BAHAMAS  41046 2050            83 84  110/ 14/ 16 1019.5F
WVE H/P(F/S)=  5/ 6 WND WVE H/P(F/S)=  3/ 6 SWL H/P/D(F/S/D)=  3/110/ 9

NE BAHAMAS 41047 2050            83 84  170/  8/ 10 1020.5F
WVE H/P(F/S)=  4/ 9 WND WVE H/P(F/S)=  2/ 4 SWL H/P/D(F/S/D)=  3/120/ 9

120E CANVRL41010 2020            82 85  140/  8/ 10 1019.3F

END


USA.gov is the U.S. government's official web portal to all federal, state and local government web resources and services.